owner,sensor,date,latitude,longitude,vertical_datum,wind_speed,wind_to_direction,wind_speed_of_gust,qcFlag 
WAVCIS,ioos:station:WAVCIS:CSI06:1,2013-08-01T00:00:00Z,28.8667,-90.4833,10.0,4.365,249.0,,'11111222,11111222,99999999' 
WAVCIS,ioos:station:WAVCIS:CSI06:1,2013-08-01T01:00:00Z,28.8667,-90.4833,10.0,3.007,251.0,,'11111222,11111222,99999999' 
WAVCIS,ioos:station:WAVCIS:CSI06:1,2013-08-01T02:00:00Z,28.8667,-90.4833,10.0,3.411,235.0,,'11111222,11111222,99999999' 
WAVCIS,ioos:station:WAVCIS:CSI06:1,2013-08-01T03:00:00Z,28.8667,-90.4833,10.0,3.232,239.0,,'11111222,11111222,99999999' 
WAVCIS,ioos:station:WAVCIS:CSI06:1,2013-08-01T04:00:00Z,28.8667,-90.4833,10.0,2.769,210.0,,'11111222,11111222,99999999' 
WAVCIS,ioos:station:WAVCIS:CSI06:1,2013-08-01T05:00:00Z,28.8667,-90.4833,10.0,3.372,211.0,,'11111222,11111222,99999999' 
WAVCIS,ioos:station:WAVCIS:CSI06:1,2013-08-01T06:00:00Z,28.8667,-90.4833,10.0,2.49,219.0,,'11111222,11111222,99999999' 
WAVCIS,ioos:station:WAVCIS:CSI06:1,2013-08-01T07:00:00Z,28.8667,-90.4833,10.0,3.686,226.0,,'11111222,11111222,99999999' 
WAVCIS,ioos:station:WAVCIS:CSI06:1,2013-08-01T08:00:00Z,28.8667,-90.4833,10.0,3.953,237.0,,'11111222,11111222,99999999' 
WAVCIS,ioos:station:WAVCIS:CSI06:1,2013-08-01T09:00:00Z,28.8667,-90.4833,10.0,4.095,242.0,,'11111222,11111222,99999999' 
WAVCIS,ioos:station:WAVCIS:CSI06:1,2013-08-01T10:00:00Z,28.8667,-90.4833,10.0,4.115,248.0,,'11111222,11111222,99999999' 
WAVCIS,ioos:station:WAVCIS:CSI06:1,2013-08-01T11:00:00Z,28.8667,-90.4833,10.0,4.522,274.0,,'11111222,11111222,99999999' 
WAVCIS,ioos:station:WAVCIS:CSI06:1,2013-08-01T12:00:00Z,28.8667,-90.4833,10.0,5.594,282.0,,'11111222,11111222,99999999' 
WAVCIS,ioos:station:WAVCIS:CSI06:1,2013-08-01T13:00:00Z,28.8667,-90.4833,10.0,5.858,278.0,,'11111222,11111222,99999999' 
WAVCIS,ioos:station:WAVCIS:CSI06:1,2013-08-01T14:00:00Z,28.8667,-90.4833,10.0,6.382,287.0,,'11111222,11111222,99999999' 
WAVCIS,ioos:station:WAVCIS:CSI06:1,2013-08-01T15:00:00Z,28.8667,-90.4833,10.0,6.368,296.0,,'11111222,11111222,99999999' 
WAVCIS,ioos:station:WAVCIS:CSI06:1,2013-08-01T16:00:00Z,28.8667,-90.4833,10.0,6.587,302.0,,'11111222,11111222,99999999' 
WAVCIS,ioos:station:WAVCIS:CSI06:1,2013-08-01T17:00:00Z,28.8667,-90.4833,10.0,6.338,308.0,,'11111222,11111222,99999999' 
WAVCIS,ioos:station:WAVCIS:CSI06:1,2013-08-01T18:00:00Z,28.8667,-90.4833,10.0,5.418,303.0,,'11111222,11111222,99999999' 
WAVCIS,ioos:station:WAVCIS:CSI06:1,2013-08-01T19:00:00Z,28.8667,-90.4833,10.0,5.346,292.0,,'11111222,11111222,99999999' 
WAVCIS,ioos:station:WAVCIS:CSI06:1,2013-08-01T20:00:00Z,28.8667,-90.4833,10.0,5.126,279.0,,'11111222,11111222,99999999' 
WAVCIS,ioos:station:WAVCIS:CSI06:1,2013-08-01T21:00:00Z,28.8667,-90.4833,10.0,4.933,276.0,,'11111222,11111222,99999999' 
WAVCIS,ioos:station:WAVCIS:CSI06:1,2013-08-01T22:00:00Z,28.8667,-90.4833,10.0,4.436,269.0,,'11111222,11111222,99999999' 
WAVCIS,ioos:station:WAVCIS:CSI06:1,2013-08-01T23:00:00Z,28.8667,-90.4833,10.0,3.587,272.0,,'11111222,11111222,99999999' 
WAVCIS,ioos:station:WAVCIS:CSI06:1,2013-08-02T00:00:00Z,28.8667,-90.4833,10.0,4.379,289.0,,'11111222,11111222,99999999' 
WAVCIS,ioos:station:WAVCIS:CSI06:1,2013-08-02T01:00:00Z,28.8667,-90.4833,10.0,2.673,289.0,,'11111222,11111222,99999999' 
WAVCIS,ioos:station:WAVCIS:CSI06:1,2013-08-02T02:00:00Z,28.8667,-90.4833,10.0,3.226,281.0,,'11111222,11111222,99999999' 
WAVCIS,ioos:station:WAVCIS:CSI06:1,2013-08-02T03:00:00Z,28.8667,-90.4833,10.0,2.173,259.0,,'11111222,11111222,99999999' 
WAVCIS,ioos:station:WAVCIS:CSI06:1,2013-08-02T04:00:00Z,28.8667,-90.4833,10.0,2.985,223.0,,'11111222,11111222,99999999' 
WAVCIS,ioos:station:WAVCIS:CSI06:1,2013-08-02T05:00:00Z,28.8667,-90.4833,10.0,3.432,225.0,,'11111222,11111222,99999999' 
WAVCIS,ioos:station:WAVCIS:CSI06:1,2013-08-02T06:00:00Z,28.8667,-90.4833,10.0,4.511,240.0,,'11111222,11111222,99999999' 
WAVCIS,ioos:station:WAVCIS:CSI06:1,2013-08-02T07:00:00Z,28.8667,-90.4833,10.0,5.617,254.0,,'11111222,11111222,99999999' 
WAVCIS,ioos:station:WAVCIS:CSI06:1,2013-08-02T08:00:00Z,28.8667,-90.4833,10.0,5.605,246.0,,'11111222,11111222,99999999' 
WAVCIS,ioos:station:WAVCIS:CSI06:1,2013-08-02T09:00:00Z,28.8667,-90.4833,10.0,4.096,260.0,,'11111222,11111222,99999999' 
WAVCIS,ioos:station:WAVCIS:CSI06:1,2013-08-02T10:00:00Z,28.8667,-90.4833,10.0,5.149,277.0,,'11111222,11111222,99999999' 
WAVCIS,ioos:station:WAVCIS:CSI06:1,2013-08-02T11:00:00Z,28.8667,-90.4833,10.0,6.1,314.0,,'11111222,11111222,99999999' 
WAVCIS,ioos:station:WAVCIS:CSI06:1,2013-08-02T12:00:00Z,28.8667,-90.4833,10.0,5.618,339.0,,'11111222,11111222,99999999' 
WAVCIS,ioos:station:WAVCIS:CSI06:1,2013-08-02T13:00:00Z,28.8667,-90.4833,10.0,8.43,271.0,,'11111222,11111222,99999999' 
WAVCIS,ioos:station:WAVCIS:CSI06:1,2013-08-02T14:00:00Z,28.8667,-90.4833,10.0,7.98,326.0,,'11111222,11111222,99999999' 
WAVCIS,ioos:station:WAVCIS:CSI06:1,2013-08-02T15:00:00Z,28.8667,-90.4833,10.0,6.19,329.0,,'11111222,11111222,99999999' 
WAVCIS,ioos:station:WAVCIS:CSI06:1,2013-08-02T16:00:00Z,28.8667,-90.4833,10.0,5.118,324.0,,'11111222,11111222,99999999' 
WAVCIS,ioos:station:WAVCIS:CSI06:1,2013-08-02T17:00:00Z,28.8667,-90.4833,10.0,3.016,293.0,,'11111222,11111222,99999999' 
WAVCIS,ioos:station:WAVCIS:CSI06:1,2013-08-02T18:00:00Z,28.8667,-90.4833,10.0,1.858,6.0,,'11111222,11111222,99999999' 
WAVCIS,ioos:station:WAVCIS:CSI06:1,2013-08-02T19:00:00Z,28.8667,-90.4833,10.0,1.198,297.0,,'11111222,11111222,99999999' 
WAVCIS,ioos:station:WAVCIS:CSI06:1,2013-08-02T20:00:00Z,28.8667,-90.4833,10.0,1.643,307.0,,'11111222,11111222,99999999' 
WAVCIS,ioos:station:WAVCIS:CSI06:1,2013-08-02T21:00:00Z,28.8667,-90.4833,10.0,0.957,255.0,,'11111222,11111222,99999999' 
WAVCIS,ioos:station:WAVCIS:CSI06:1,2013-08-02T22:00:00Z,28.8667,-90.4833,10.0,2.003,270.0,,'11111222,11111222,99999999' 
WAVCIS,ioos:station:WAVCIS:CSI06:1,2013-08-02T23:00:00Z,28.8667,-90.4833,10.0,2.417,256.0,,'11111222,11111222,99999999' 
WAVCIS,ioos:station:WAVCIS:CSI06:1,2013-08-03T00:00:00Z,28.8667,-90.4833,10.0,1.146,257.0,,'11111222,11111222,99999999' 
WAVCIS,ioos:station:WAVCIS:CSI06:1,2013-08-03T01:00:00Z,28.8667,-90.4833,10.0,0.987,291.0,,'11111222,11111222,99999999' 
WAVCIS,ioos:station:WAVCIS:CSI06:1,2013-08-03T02:00:00Z,28.8667,-90.4833,10.0,0.848,306.0,,'11111222,11111222,99999999' 
WAVCIS,ioos:station:WAVCIS:CSI06:1,2013-08-03T03:00:00Z,28.8667,-90.4833,10.0,2.594,185.0,,'11111222,11111222,99999999' 
WAVCIS,ioos:station:WAVCIS:CSI06:1,2013-08-03T04:00:00Z,28.8667,-90.4833,10.0,2.403,219.0,,'11111222,11111222,99999999' 
WAVCIS,ioos:station:WAVCIS:CSI06:1,2013-08-03T05:00:00Z,28.8667,-90.4833,10.0,2.767,206.0,,'11111222,11111222,99999999' 
WAVCIS,ioos:station:WAVCIS:CSI06:1,2013-08-03T06:00:00Z,28.8667,-90.4833,10.0,2.804,205.0,,'11111222,11111222,99999999' 
WAVCIS,ioos:station:WAVCIS:CSI06:1,2013-08-03T07:00:00Z,28.8667,-90.4833,10.0,3.708,195.0,,'11111222,11111222,99999999' 
WAVCIS,ioos:station:WAVCIS:CSI06:1,2013-08-03T08:00:00Z,28.8667,-90.4833,10.0,3.421,204.0,,'11111222,11111222,99999999' 
WAVCIS,ioos:station:WAVCIS:CSI06:1,2013-08-03T09:00:00Z,28.8667,-90.4833,10.0,3.53,211.0,,'11111222,11111222,99999999' 
WAVCIS,ioos:station:WAVCIS:CSI06:1,2013-08-03T10:00:00Z,28.8667,-90.4833,10.0,3.442,213.0,,'11111222,11111222,99999999' 
WAVCIS,ioos:station:WAVCIS:CSI06:1,2013-08-03T11:00:00Z,28.8667,-90.4833,10.0,4.033,230.0,,'11111222,11111222,99999999' 
WAVCIS,ioos:station:WAVCIS:CSI06:1,2013-08-03T12:00:00Z,28.8667,-90.4833,10.0,3.957,225.0,,'11111222,11111222,99999999' 
WAVCIS,ioos:station:WAVCIS:CSI06:1,2013-08-03T13:00:00Z,28.8667,-90.4833,10.0,3.641,222.0,,'11111222,11111222,99999999' 
WAVCIS,ioos:station:WAVCIS:CSI06:1,2013-08-03T14:00:00Z,28.8667,-90.4833,10.0,3.235,240.0,,'11111222,11111222,99999999' 
WAVCIS,ioos:station:WAVCIS:CSI06:1,2013-08-03T15:00:00Z,28.8667,-90.4833,10.0,3.544,229.0,,'11111222,11111222,99999999' 
WAVCIS,ioos:station:WAVCIS:CSI06:1,2013-08-03T16:00:00Z,28.8667,-90.4833,10.0,2.352,256.0,,'11111222,11111222,99999999' 
WAVCIS,ioos:station:WAVCIS:CSI06:1,2013-08-03T17:00:00Z,28.8667,-90.4833,10.0,3.262,331.0,,'11111222,11111222,99999999' 
WAVCIS,ioos:station:WAVCIS:CSI06:1,2013-08-03T18:00:00Z,28.8667,-90.4833,10.0,3.164,326.0,,'11111222,11111222,99999999' 
WAVCIS,ioos:station:WAVCIS:CSI06:1,2013-08-03T19:00:00Z,28.8667,-90.4833,10.0,1.166,309.0,,'11111222,11111222,99999999' 
WAVCIS,ioos:station:WAVCIS:CSI06:1,2013-08-03T20:00:00Z,28.8667,-90.4833,10.0,5.387,218.0,,'11111222,11111222,99999999' 
WAVCIS,ioos:station:WAVCIS:CSI06:1,2013-08-03T21:00:00Z,28.8667,-90.4833,10.0,0.996,186.0,,'11111222,11111222,99999999' 
WAVCIS,ioos:station:WAVCIS:CSI06:1,2013-08-03T22:00:00Z,28.8667,-90.4833,10.0,1.695,258.0,,'11111222,11111222,99999999' 
WAVCIS,ioos:station:WAVCIS:CSI06:1,2013-08-03T23:00:00Z,28.8667,-90.4833,10.0,2.586,267.0,,'11111222,11111222,99999999' 
WAVCIS,ioos:station:WAVCIS:CSI06:1,2013-08-04T00:00:00Z,28.8667,-90.4833,10.0,2.238,254.0,,'11111222,11111222,99999999' 
WAVCIS,ioos:station:WAVCIS:CSI06:1,2013-08-04T01:00:00Z,28.8667,-90.4833,10.0,2.023,243.0,,'11111222,11111222,99999999' 
WAVCIS,ioos:station:WAVCIS:CSI06:1,2013-08-04T02:00:00Z,28.8667,-90.4833,10.0,2.225,180.0,,'11111222,11111222,99999999' 
WAVCIS,ioos:station:WAVCIS:CSI06:1,2013-08-04T03:00:00Z,28.8667,-90.4833,10.0,3.129,170.0,,'11111222,11111222,99999999' 
WAVCIS,ioos:station:WAVCIS:CSI06:1,2013-08-04T04:00:00Z,28.8667,-90.4833,10.0,3.578,197.0,,'11111222,11111222,99999999' 
WAVCIS,ioos:station:WAVCIS:CSI06:1,2013-08-04T05:00:00Z,28.8667,-90.4833,10.0,4.491,193.0,,'11111222,11111222,99999999' 
WAVCIS,ioos:station:WAVCIS:CSI06:1,2013-08-04T06:00:00Z,28.8667,-90.4833,10.0,4.675,206.0,,'11111222,11111222,99999999' 
WAVCIS,ioos:station:WAVCIS:CSI06:1,2013-08-04T07:00:00Z,28.8667,-90.4833,10.0,5.214,210.0,,'11111222,11111222,99999999' 
WAVCIS,ioos:station:WAVCIS:CSI06:1,2013-08-04T08:00:00Z,28.8667,-90.4833,10.0,5.292,215.0,,'11111222,11111222,99999999' 
WAVCIS,ioos:station:WAVCIS:CSI06:1,2013-08-04T09:00:00Z,28.8667,-90.4833,10.0,4.267,239.0,,'11111222,11111222,99999999' 
WAVCIS,ioos:station:WAVCIS:CSI06:1,2013-08-04T10:00:00Z,28.8667,-90.4833,10.0,4.531,251.0,,'11111222,11111222,99999999' 
WAVCIS,ioos:station:WAVCIS:CSI06:1,2013-08-04T11:00:00Z,28.8667,-90.4833,10.0,4.57,273.0,,'11111222,11111222,99999999' 
WAVCIS,ioos:station:WAVCIS:CSI06:1,2013-08-04T12:00:00Z,28.8667,-90.4833,10.0,3.751,269.0,,'11111222,11111222,99999999' 
WAVCIS,ioos:station:WAVCIS:CSI06:1,2013-08-04T13:00:00Z,28.8667,-90.4833,10.0,4.364,261.0,,'11111222,11111222,99999999' 
WAVCIS,ioos:station:WAVCIS:CSI06:1,2013-08-04T14:00:00Z,28.8667,-90.4833,10.0,7.13,249.0,,'11111222,11111222,99999999' 
WAVCIS,ioos:station:WAVCIS:CSI06:1,2013-08-04T15:00:00Z,28.8667,-90.4833,10.0,1.684,315.0,,'11111222,11111222,99999999' 
WAVCIS,ioos:station:WAVCIS:CSI06:1,2013-08-04T16:00:00Z,28.8667,-90.4833,10.0,3.25,305.0,,'11111222,11111222,99999999' 
WAVCIS,ioos:station:WAVCIS:CSI06:1,2013-08-04T17:00:00Z,28.8667,-90.4833,10.0,1.677,339.0,,'11111222,11111222,99999999' 
WAVCIS,ioos:station:WAVCIS:CSI06:1,2013-08-04T18:00:00Z,28.8667,-90.4833,10.0,2.715,41.0,,'11111222,11111222,99999999' 
WAVCIS,ioos:station:WAVCIS:CSI06:1,2013-08-04T19:00:00Z,28.8667,-90.4833,10.0,1.225,281.0,,'11111222,11111222,99999999' 
WAVCIS,ioos:station:WAVCIS:CSI06:1,2013-08-04T20:00:00Z,28.8667,-90.4833,10.0,7.29,285.0,,'11111222,11111222,99999999' 
WAVCIS,ioos:station:WAVCIS:CSI06:1,2013-08-04T21:00:00Z,28.8667,-90.4833,10.0,3.113,278.0,,'11111222,11111222,99999999' 
WAVCIS,ioos:station:WAVCIS:CSI06:1,2013-08-04T22:00:00Z,28.8667,-90.4833,10.0,3.176,272.0,,'11111222,11111222,99999999' 
WAVCIS,ioos:station:WAVCIS:CSI06:1,2013-08-04T23:00:00Z,28.8667,-90.4833,10.0,3.425,273.0,,'11111222,11111222,99999999' 
WAVCIS,ioos:station:WAVCIS:CSI06:1,2013-08-05T00:00:00Z,28.8667,-90.4833,10.0,3.574,260.0,,'11111222,11111222,99999999' 
WAVCIS,ioos:station:WAVCIS:CSI06:1,2013-08-05T01:00:00Z,28.8667,-90.4833,10.0,4.482,274.0,,'11111222,11111222,99999999' 
WAVCIS,ioos:station:WAVCIS:CSI06:1,2013-08-05T02:00:00Z,28.8667,-90.4833,10.0,3.497,263.0,,'11111222,11111222,99999999' 
WAVCIS,ioos:station:WAVCIS:CSI06:1,2013-08-05T03:00:00Z,28.8667,-90.4833,10.0,3.585,262.0,,'11111222,11111222,99999999' 
WAVCIS,ioos:station:WAVCIS:CSI06:1,2013-08-05T04:00:00Z,28.8667,-90.4833,10.0,3.136,264.0,,'11111222,11111222,99999999' 
WAVCIS,ioos:station:WAVCIS:CSI06:1,2013-08-05T05:00:00Z,28.8667,-90.4833,10.0,3.705,273.0,,'11111222,11111222,99999999' 
WAVCIS,ioos:station:WAVCIS:CSI06:1,2013-08-05T06:00:00Z,28.8667,-90.4833,10.0,3.416,278.0,,'11111222,11111222,99999999' 
WAVCIS,ioos:station:WAVCIS:CSI06:1,2013-08-05T07:00:00Z,28.8667,-90.4833,10.0,3.757,264.0,,'11111222,11111222,99999999' 
WAVCIS,ioos:station:WAVCIS:CSI06:1,2013-08-05T08:00:00Z,28.8667,-90.4833,10.0,4.738,268.0,,'11111222,11111222,99999999' 
WAVCIS,ioos:station:WAVCIS:CSI06:1,2013-08-05T09:00:00Z,28.8667,-90.4833,10.0,5.329,281.0,,'11111222,11111222,99999999' 
WAVCIS,ioos:station:WAVCIS:CSI06:1,2013-08-05T10:00:00Z,28.8667,-90.4833,10.0,5.542,267.0,,'11111222,11111222,99999999' 
WAVCIS,ioos:station:WAVCIS:CSI06:1,2013-08-05T11:00:00Z,28.8667,-90.4833,10.0,6.171,281.0,,'11111222,11111222,99999999' 
WAVCIS,ioos:station:WAVCIS:CSI06:1,2013-08-05T12:00:00Z,28.8667,-90.4833,10.0,6.119,289.0,,'11111222,11111222,99999999' 
WAVCIS,ioos:station:WAVCIS:CSI06:1,2013-08-05T13:00:00Z,28.8667,-90.4833,10.0,7.34,317.0,,'11111222,11111222,99999999' 
WAVCIS,ioos:station:WAVCIS:CSI06:1,2013-08-05T14:00:00Z,28.8667,-90.4833,10.0,3.385,348.0,,'11111222,11111222,99999999' 
WAVCIS,ioos:station:WAVCIS:CSI06:1,2013-08-05T15:00:00Z,28.8667,-90.4833,10.0,7.25,319.0,,'11111222,11111222,99999999' 
WAVCIS,ioos:station:WAVCIS:CSI06:1,2013-08-05T16:00:00Z,28.8667,-90.4833,10.0,2.216,9.0,,'11111222,11111222,99999999' 
WAVCIS,ioos:station:WAVCIS:CSI06:1,2013-08-05T17:00:00Z,28.8667,-90.4833,10.0,1.41,249.0,,'11111222,11111222,99999999' 
WAVCIS,ioos:station:WAVCIS:CSI06:1,2013-08-05T18:00:00Z,28.8667,-90.4833,10.0,2.078,12.0,,'11111222,11111222,99999999' 
WAVCIS,ioos:station:WAVCIS:CSI06:1,2013-08-05T19:00:00Z,28.8667,-90.4833,10.0,0.749,154.0,,'11111222,11111222,99999999' 
WAVCIS,ioos:station:WAVCIS:CSI06:1,2013-08-05T20:00:00Z,28.8667,-90.4833,10.0,3.079,231.0,,'11111222,11111222,99999999' 
WAVCIS,ioos:station:WAVCIS:CSI06:1,2013-08-05T21:00:00Z,28.8667,-90.4833,10.0,6.082,271.0,,'11111222,11111222,99999999' 
WAVCIS,ioos:station:WAVCIS:CSI06:1,2013-08-05T22:00:00Z,28.8667,-90.4833,10.0,6.048,278.0,,'11111222,11111222,99999999' 
WAVCIS,ioos:station:WAVCIS:CSI06:1,2013-08-05T23:00:00Z,28.8667,-90.4833,10.0,6.819,273.0,,'11111222,11111222,99999999' 
WAVCIS,ioos:station:WAVCIS:CSI06:1,2013-08-06T00:00:00Z,28.8667,-90.4833,10.0,6.061,271.0,,'11111222,11111222,99999999' 
WAVCIS,ioos:station:WAVCIS:CSI06:1,2013-08-06T01:00:00Z,28.8667,-90.4833,10.0,6.161,270.0,,'11111222,11111222,99999999' 
WAVCIS,ioos:station:WAVCIS:CSI06:1,2013-08-06T02:00:00Z,28.8667,-90.4833,10.0,5.569,278.0,,'11111222,11111222,99999999' 
WAVCIS,ioos:station:WAVCIS:CSI06:1,2013-08-06T03:00:00Z,28.8667,-90.4833,10.0,5.277,256.0,,'11111222,11111222,99999999' 
WAVCIS,ioos:station:WAVCIS:CSI06:1,2013-08-06T04:00:00Z,28.8667,-90.4833,10.0,4.863,264.0,,'11111222,11111222,99999999' 
WAVCIS,ioos:station:WAVCIS:CSI06:1,2013-08-06T05:00:00Z,28.8667,-90.4833,10.0,5.191,270.0,,'11111222,11111222,99999999' 
WAVCIS,ioos:station:WAVCIS:CSI06:1,2013-08-06T06:00:00Z,28.8667,-90.4833,10.0,4.943,267.0,,'11111222,11111222,99999999' 
WAVCIS,ioos:station:WAVCIS:CSI06:1,2013-08-06T07:00:00Z,28.8667,-90.4833,10.0,4.429,262.0,,'11111222,11111222,99999999' 
WAVCIS,ioos:station:WAVCIS:CSI06:1,2013-08-06T08:00:00Z,28.8667,-90.4833,10.0,5.9,254.0,,'11111222,11111222,99999999' 
WAVCIS,ioos:station:WAVCIS:CSI06:1,2013-08-06T09:00:00Z,28.8667,-90.4833,10.0,6.523,251.0,,'11111222,11111222,99999999' 
WAVCIS,ioos:station:WAVCIS:CSI06:1,2013-08-06T10:00:00Z,28.8667,-90.4833,10.0,7.06,264.0,,'11111222,11111222,99999999' 
WAVCIS,ioos:station:WAVCIS:CSI06:1,2013-08-06T11:00:00Z,28.8667,-90.4833,10.0,6.335,273.0,,'11111222,11111222,99999999' 
WAVCIS,ioos:station:WAVCIS:CSI06:1,2013-08-06T12:00:00Z,28.8667,-90.4833,10.0,6.337,271.0,,'11111222,11111222,99999999' 
WAVCIS,ioos:station:WAVCIS:CSI06:1,2013-08-06T13:00:00Z,28.8667,-90.4833,10.0,5.762,284.0,,'11111222,11111222,99999999' 
WAVCIS,ioos:station:WAVCIS:CSI06:1,2013-08-06T14:00:00Z,28.8667,-90.4833,10.0,5.599,290.0,,'11111222,11111222,99999999' 
WAVCIS,ioos:station:WAVCIS:CSI06:1,2013-08-06T15:00:00Z,28.8667,-90.4833,10.0,5.327,308.0,,'11111222,11111222,99999999' 
WAVCIS,ioos:station:WAVCIS:CSI06:1,2013-08-06T16:00:00Z,28.8667,-90.4833,10.0,5.571,308.0,,'11111222,11111222,99999999' 
WAVCIS,ioos:station:WAVCIS:CSI06:1,2013-08-06T17:00:00Z,28.8667,-90.4833,10.0,4.572,305.0,,'11111222,11111222,99999999' 
WAVCIS,ioos:station:WAVCIS:CSI06:1,2013-08-06T18:00:00Z,28.8667,-90.4833,10.0,4.915,284.0,,'11111222,11111222,99999999' 
WAVCIS,ioos:station:WAVCIS:CSI06:1,2013-08-06T19:00:00Z,28.8667,-90.4833,10.0,4.407,275.0,,'11111222,11111222,99999999' 
WAVCIS,ioos:station:WAVCIS:CSI06:1,2013-08-06T20:00:00Z,28.8667,-90.4833,10.0,5.895,269.0,,'11111222,11111222,99999999' 
WAVCIS,ioos:station:WAVCIS:CSI06:1,2013-08-06T21:00:00Z,28.8667,-90.4833,10.0,6.567,271.0,,'11111222,11111222,99999999' 
WAVCIS,ioos:station:WAVCIS:CSI06:1,2013-08-06T22:00:00Z,28.8667,-90.4833,10.0,6.558,265.0,,'11111222,11111222,99999999' 
WAVCIS,ioos:station:WAVCIS:CSI06:1,2013-08-06T23:00:00Z,28.8667,-90.4833,10.0,6.477,265.0,,'11111222,11111222,99999999' 
WAVCIS,ioos:station:WAVCIS:CSI06:1,2013-08-07T00:00:00Z,28.8667,-90.4833,10.0,6.269,263.0,,'11111222,11111222,99999999' 
WAVCIS,ioos:station:WAVCIS:CSI06:1,2013-08-07T01:00:00Z,28.8667,-90.4833,10.0,6.452,273.0,,'11111222,11111222,99999999' 
WAVCIS,ioos:station:WAVCIS:CSI06:1,2013-08-07T02:00:00Z,28.8667,-90.4833,10.0,5.931,260.0,,'11111222,11111222,99999999' 
WAVCIS,ioos:station:WAVCIS:CSI06:1,2013-08-07T03:00:00Z,28.8667,-90.4833,10.0,5.097,264.0,,'11111222,11111222,99999999' 
WAVCIS,ioos:station:WAVCIS:CSI06:1,2013-08-07T04:00:00Z,28.8667,-90.4833,10.0,3.854,259.0,,'11111222,11111222,99999999' 
WAVCIS,ioos:station:WAVCIS:CSI06:1,2013-08-07T05:00:00Z,28.8667,-90.4833,10.0,3.659,269.0,,'11111222,11111222,99999999' 
WAVCIS,ioos:station:WAVCIS:CSI06:1,2013-08-07T06:00:00Z,28.8667,-90.4833,10.0,4.397,264.0,,'11111222,11111222,99999999' 
WAVCIS,ioos:station:WAVCIS:CSI06:1,2013-08-07T07:00:00Z,28.8667,-90.4833,10.0,5.22,261.0,,'11111222,11111222,99999999' 
WAVCIS,ioos:station:WAVCIS:CSI06:1,2013-08-07T08:00:00Z,28.8667,-90.4833,10.0,5.468,263.0,,'11111222,11111222,99999999' 
WAVCIS,ioos:station:WAVCIS:CSI06:1,2013-08-07T09:00:00Z,28.8667,-90.4833,10.0,6.473,267.0,,'11111222,11111222,99999999' 
WAVCIS,ioos:station:WAVCIS:CSI06:1,2013-08-07T10:00:00Z,28.8667,-90.4833,10.0,6.288,278.0,,'11111222,11111222,99999999' 
WAVCIS,ioos:station:WAVCIS:CSI06:1,2013-08-07T11:00:00Z,28.8667,-90.4833,10.0,5.746,279.0,,'11111222,11111222,99999999' 
WAVCIS,ioos:station:WAVCIS:CSI06:1,2013-08-07T12:00:00Z,28.8667,-90.4833,10.0,5.159,273.0,,'11111222,11111222,99999999' 
WAVCIS,ioos:station:WAVCIS:CSI06:1,2013-08-07T13:00:00Z,28.8667,-90.4833,10.0,4.943,291.0,,'11111222,11111222,99999999' 
WAVCIS,ioos:station:WAVCIS:CSI06:1,2013-08-07T14:00:00Z,28.8667,-90.4833,10.0,3.762,312.0,,'11111222,11111222,99999999' 
WAVCIS,ioos:station:WAVCIS:CSI06:1,2013-08-07T15:00:00Z,28.8667,-90.4833,10.0,2.678,300.0,,'11111222,11111222,99999999' 
WAVCIS,ioos:station:WAVCIS:CSI06:1,2013-08-07T16:00:00Z,28.8667,-90.4833,10.0,2.922,314.0,,'11111222,11111222,99999999' 
WAVCIS,ioos:station:WAVCIS:CSI06:1,2013-08-07T17:00:00Z,28.8667,-90.4833,10.0,2.441,336.0,,'11111222,11111222,99999999' 
WAVCIS,ioos:station:WAVCIS:CSI06:1,2013-08-07T18:00:00Z,28.8667,-90.4833,10.0,1.254,313.0,,'11111222,11111222,99999999' 
WAVCIS,ioos:station:WAVCIS:CSI06:1,2013-08-07T19:00:00Z,28.8667,-90.4833,10.0,1.469,250.0,,'11111222,11111222,99999999' 
WAVCIS,ioos:station:WAVCIS:CSI06:1,2013-08-07T20:00:00Z,28.8667,-90.4833,10.0,0.986,249.0,,'11111222,11111222,99999999' 
WAVCIS,ioos:station:WAVCIS:CSI06:1,2013-08-07T21:00:00Z,28.8667,-90.4833,10.0,1.807,261.0,,'11111222,11111222,99999999' 
WAVCIS,ioos:station:WAVCIS:CSI06:1,2013-08-07T22:00:00Z,28.8667,-90.4833,10.0,2.782,266.0,,'11111222,11111222,99999999' 
WAVCIS,ioos:station:WAVCIS:CSI06:1,2013-08-07T23:00:00Z,28.8667,-90.4833,10.0,3.353,265.0,,'11111222,11111222,99999999' 
WAVCIS,ioos:station:WAVCIS:CSI06:1,2013-08-08T00:00:00Z,28.8667,-90.4833,10.0,2.854,276.0,,'11111222,11111222,99999999' 
WAVCIS,ioos:station:WAVCIS:CSI06:1,2013-08-08T01:00:00Z,28.8667,-90.4833,10.0,3.01,277.0,,'11111222,11111222,99999999' 
WAVCIS,ioos:station:WAVCIS:CSI06:1,2013-08-08T02:00:00Z,28.8667,-90.4833,10.0,1.247,272.0,,'11111222,11111222,99999999' 
WAVCIS,ioos:station:WAVCIS:CSI06:1,2013-08-08T03:00:00Z,28.8667,-90.4833,10.0,1.264,194.0,,'11111222,11111222,99999999' 
WAVCIS,ioos:station:WAVCIS:CSI06:1,2013-08-08T04:00:00Z,28.8667,-90.4833,10.0,1.161,166.0,,'11111222,11111222,99999999' 
WAVCIS,ioos:station:WAVCIS:CSI06:1,2013-08-08T05:00:00Z,28.8667,-90.4833,10.0,0.936,254.0,,'11111222,11111222,99999999' 
WAVCIS,ioos:station:WAVCIS:CSI06:1,2013-08-08T06:00:00Z,28.8667,-90.4833,10.0,2.101,191.0,,'11111222,11111222,99999999' 
WAVCIS,ioos:station:WAVCIS:CSI06:1,2013-08-08T07:00:00Z,28.8667,-90.4833,10.0,0.855,271.0,,'11111222,11111222,99999999' 
WAVCIS,ioos:station:WAVCIS:CSI06:1,2013-08-08T08:00:00Z,28.8667,-90.4833,10.0,1.711,278.0,,'11111222,11111222,99999999' 
WAVCIS,ioos:station:WAVCIS:CSI06:1,2013-08-08T09:00:00Z,28.8667,-90.4833,10.0,2.408,326.0,,'11111222,11111222,99999999' 
WAVCIS,ioos:station:WAVCIS:CSI06:1,2013-08-08T10:00:00Z,28.8667,-90.4833,10.0,2.736,336.0,,'11111222,11111222,99999999' 
WAVCIS,ioos:station:WAVCIS:CSI06:1,2013-08-08T11:00:00Z,28.8667,-90.4833,10.0,2.278,344.0,,'11111222,11111222,99999999' 
WAVCIS,ioos:station:WAVCIS:CSI06:1,2013-08-08T12:00:00Z,28.8667,-90.4833,10.0,2.985,11.0,,'11111222,11111222,99999999' 
WAVCIS,ioos:station:WAVCIS:CSI06:1,2013-08-08T13:00:00Z,28.8667,-90.4833,10.0,3.354,13.0,,'11111222,11111222,99999999' 
WAVCIS,ioos:station:WAVCIS:CSI06:1,2013-08-08T14:00:00Z,28.8667,-90.4833,10.0,7.51,31.0,,'11111222,11111222,99999999' 
WAVCIS,ioos:station:WAVCIS:CSI06:1,2013-08-08T15:00:00Z,28.8667,-90.4833,10.0,3.68,11.0,,'11111222,11111222,99999999' 
WAVCIS,ioos:station:WAVCIS:CSI06:1,2013-08-08T16:00:00Z,28.8667,-90.4833,10.0,2.488,223.0,,'11111222,11111222,99999999' 
WAVCIS,ioos:station:WAVCIS:CSI06:1,2013-08-08T17:00:00Z,28.8667,-90.4833,10.0,1.909,312.0,,'11111222,11111222,99999999' 
WAVCIS,ioos:station:WAVCIS:CSI06:1,2013-08-08T18:00:00Z,28.8667,-90.4833,10.0,4.608,104.0,,'11111222,11111222,99999999' 
WAVCIS,ioos:station:WAVCIS:CSI06:1,2013-08-08T19:00:00Z,28.8667,-90.4833,10.0,3.052,71.0,,'11111222,11111222,99999999' 
WAVCIS,ioos:station:WAVCIS:CSI06:1,2013-08-08T20:00:00Z,28.8667,-90.4833,10.0,1.767,110.0,,'11111222,11111222,99999999' 
WAVCIS,ioos:station:WAVCIS:CSI06:1,2013-08-08T21:00:00Z,28.8667,-90.4833,10.0,2.364,112.0,,'11111222,11111222,99999999' 
WAVCIS,ioos:station:WAVCIS:CSI06:1,2013-08-08T22:00:00Z,28.8667,-90.4833,10.0,2.402,112.0,,'11111222,11111222,99999999' 
WAVCIS,ioos:station:WAVCIS:CSI06:1,2013-08-08T23:00:00Z,28.8667,-90.4833,10.0,3.612,121.0,,'11111222,11111222,99999999' 
WAVCIS,ioos:station:WAVCIS:CSI06:1,2013-08-09T00:00:00Z,28.8667,-90.4833,10.0,4.201,113.0,,'11111222,11111222,99999999' 
WAVCIS,ioos:station:WAVCIS:CSI06:1,2013-08-09T01:00:00Z,28.8667,-90.4833,10.0,4.061,117.0,,'11111222,11111222,99999999' 
WAVCIS,ioos:station:WAVCIS:CSI06:1,2013-08-09T02:00:00Z,28.8667,-90.4833,10.0,3.916,111.0,,'11111222,11111222,99999999' 
WAVCIS,ioos:station:WAVCIS:CSI06:1,2013-08-09T03:00:00Z,28.8667,-90.4833,10.0,4.784,101.0,,'11111222,11111222,99999999' 
WAVCIS,ioos:station:WAVCIS:CSI06:1,2013-08-09T04:00:00Z,28.8667,-90.4833,10.0,5.939,105.0,,'11111222,11111222,99999999' 